SBI110 UWWW-URMM

Flight info

Callsign SBI110
Flight time 2h 5m
Altitude 34000
Route GITEK2K GITEK T691 UROBO R807 RODUN G901 WGD G481 TONGI R807 NIRGA/K0826F350 N82 URILU URILU5E
Aircraft A321/M-SDE3FGHIRWY/LB1

Departure

Time 2026-04-22 18:57
Airport Kurumoch International Airport (UWWW)

Arrival

Time 2026-04-22 21:02
Airport Mineralnye Vody Airport (URMM)
Time Latitude Longitude Altitude Speed Heading
2026-04-22 17:21 53.51170 50.15937 492 ft 0 kts 331°
2026-04-22 18:19 53.51164 50.15942 493 ft 2 kts 331°
2026-04-22 18:20 53.51151 50.15954 494 ft 2 kts 331°
2026-04-22 18:20 53.51138 50.15966 495 ft 2 kts 329°
2026-04-22 18:20 53.51126 50.15983 494 ft 2 kts 310°
2026-04-22 18:20 53.51117 50.16003 493 ft 2 kts 297°
2026-04-22 18:21 53.51109 50.16025 493 ft 2 kts 312°
2026-04-22 18:21 53.51099 50.16043 492 ft 2 kts 318°
2026-04-22 18:21 53.51087 50.16058 492 ft 2 kts 328°
2026-04-22 18:21 53.51073 50.16071 492 ft 2 kts 331°
2026-04-22 18:22 53.51060 50.16083 492 ft 1 kts 329°
2026-04-22 18:22 53.51059 50.16085 492 ft 0 kts 329°
2026-04-22 18:29 53.51060 50.16084 492 ft 0 kts 329°
2026-04-22 18:29 53.51067 50.16077 492 ft 1 kts 329°
2026-04-22 18:29 53.51083 50.16061 492 ft 3 kts 329°
2026-04-22 18:30 53.51107 50.16046 492 ft 3 kts 357°
2026-04-22 18:30 53.51150 50.16134 492 ft 6 kts 61°
2026-04-22 18:30 53.51175 50.16211 492 ft 7 kts 62°
2026-04-22 18:31 53.51203 50.16298 492 ft 8 kts 61°
2026-04-22 18:31 53.51234 50.16393 492 ft 9 kts 62°
2026-04-22 18:31 53.51269 50.16500 492 ft 10 kts 61°
2026-04-22 18:31 53.51306 50.16613 492 ft 11 kts 62°
2026-04-22 18:32 53.51340 50.16703 492 ft 8 kts 37°
2026-04-22 18:32 53.51400 50.16697 492 ft 9 kts 341°
2026-04-22 18:32 53.51465 50.16659 492 ft 10 kts 341°
2026-04-22 18:32 53.51537 50.16618 492 ft 11 kts 341°
2026-04-22 18:33 53.51610 50.16575 492 ft 8 kts 340°
2026-04-22 18:33 53.51645 50.16554 492 ft 3 kts 340°
2026-04-22 18:33 53.51671 50.16539 492 ft 4 kts 340°
2026-04-22 18:33 53.51702 50.16530 492 ft 5 kts 359°
2026-04-22 18:34 53.51719 50.16531 492 ft 0 kts
2026-04-22 18:51 53.51720 50.16532 492 ft 0 kts
2026-04-22 18:52 53.51729 50.16534 492 ft 1 kts 13°
2026-04-22 18:52 53.51743 50.16542 492 ft 2 kts 21°
2026-04-22 18:52 53.51763 50.16559 492 ft 3 kts 32°
2026-04-22 18:52 53.51784 50.16589 492 ft 4 kts 48°
2026-04-22 18:53 53.51797 50.16626 492 ft 0 kts 65°
2026-04-22 18:54 53.51799 50.16632 492 ft 1 kts 66°
2026-04-22 18:54 53.51807 50.16664 492 ft 4 kts 70°
2026-04-22 18:54 53.51818 50.16725 492 ft 6 kts 76°
2026-04-22 18:54 53.51819 50.16816 492 ft 8 kts 103°
2026-04-22 18:55 53.51783 50.16886 492 ft 1 kts 157°
2026-04-22 18:56 53.51685 50.16948 492 ft 47 kts 161°
2026-04-22 18:56 53.51140 50.17277 493 ft 115 kts 160°
2026-04-22 18:56 53.50204 50.17838 495 ft 169 kts 159°
2026-04-22 18:56 53.49043 50.18543 990 ft 178 kts 159°
2026-04-22 18:57 53.47877 50.19236 1654 ft 180 kts 158°
2026-04-22 18:57 53.46718 50.19934 2381 ft 179 kts 159°
2026-04-22 18:57 53.45518 50.20633 2822 ft 190 kts 161°
2026-04-22 18:57 53.44216 50.21422 3187 ft 205 kts 161°
2026-04-22 18:58 53.42810 50.22248 3492 ft 225 kts 164°
2026-04-22 18:58 53.41288 50.23159 3844 ft 242 kts 167°
2026-04-22 18:58 53.39588 50.23650 4122 ft 253 kts 180°
2026-04-22 18:58 53.37800 50.23582 4815 ft 256 kts 186°
2026-04-22 18:59 53.36059 50.23375 5670 ft 254 kts 185°
2026-04-22 18:59 53.34307 50.23196 6472 ft 254 kts 185°
2026-04-22 18:59 53.32538 50.23024 7189 ft 256 kts 185°
2026-04-22 18:59 53.30740 50.22865 7875 ft 260 kts 186°
2026-04-22 19:00 53.28965 50.22467 8522 ft 262 kts 194°
2026-04-22 19:00 53.27171 50.21812 9170 ft 266 kts 193°
2026-04-22 19:00 53.25360 50.21118 9829 ft 268 kts 192°
2026-04-22 19:00 53.23528 50.20494 10271 ft 278 kts 193°
2026-04-22 19:01 53.21573 50.19841 10597 ft 293 kts 193°
2026-04-22 19:01 53.19561 50.19143 11119 ft 299 kts 193°
2026-04-22 19:01 53.17517 50.18422 11816 ft 300 kts 192°
2026-04-22 19:01 53.15445 50.17718 12409 ft 303 kts 192°
2026-04-22 19:02 53.13377 50.17045 12996 ft 306 kts 193°
2026-04-22 19:02 53.11279 50.16332 13589 ft 309 kts 192°
2026-04-22 19:02 53.09182 50.15629 14130 ft 313 kts 193°
2026-04-22 19:02 53.07044 50.14900 14687 ft 316 kts 193°
2026-04-22 19:03 53.04871 50.14156 15247 ft 318 kts 191°
2026-04-22 19:03 53.02724 50.13423 15777 ft 320 kts 191°
2026-04-22 19:03 53.00516 50.12710 16294 ft 324 kts 192°
2026-04-22 19:03 52.98302 50.11985 16835 ft 326 kts 192°
2026-04-22 19:04 52.96082 50.11247 17365 ft 328 kts 192°
2026-04-22 19:04 52.93836 50.10498 17896 ft 330 kts 192°
2026-04-22 19:04 52.91580 50.09744 18389 ft 332 kts 192°
2026-04-22 19:04 52.89310 50.08987 18888 ft 334 kts 192°
2026-04-22 19:05 52.87017 50.08225 19391 ft 337 kts 192°
2026-04-22 19:05 52.84707 50.07458 19901 ft 338 kts 192°
2026-04-22 19:05 52.82378 50.06686 20383 ft 341 kts 192°
2026-04-22 19:05 52.80056 50.05916 20840 ft 344 kts 192°
2026-04-22 19:06 52.77694 50.05134 21288 ft 347 kts 192°
2026-04-22 19:06 52.75332 50.04351 21729 ft 350 kts 192°
2026-04-22 19:06 52.72923 50.03554 22188 ft 352 kts 192°
2026-04-22 19:07 52.68099 50.01962 23074 ft 357 kts 192°
2026-04-22 19:07 52.65677 50.01163 23505 ft 359 kts 192°
2026-04-22 19:07 52.63200 50.00348 23915 ft 362 kts 192°
2026-04-22 19:07 52.60722 49.99535 24294 ft 365 kts 192°
2026-04-22 19:08 52.58254 49.98452 24668 ft 366 kts 203°
2026-04-22 19:08 52.56020 49.96331 25052 ft 368 kts 218°
2026-04-22 19:08 52.54206 49.93371 25417 ft 370 kts 229°
2026-04-22 19:08 52.52580 49.90123 25780 ft 372 kts 230°
2026-04-22 19:09 52.50952 49.86830 26117 ft 374 kts 230°
2026-04-22 19:09 52.49299 49.83497 26473 ft 376 kts 230°
2026-04-22 19:09 52.47651 49.80191 26812 ft 377 kts 230°
2026-04-22 19:09 52.45989 49.76870 27105 ft 379 kts 230°
2026-04-22 19:10 52.44303 49.73504 27401 ft 381 kts 230°
2026-04-22 19:10 52.42617 49.70148 27672 ft 383 kts 230°
2026-04-22 19:10 52.40914 49.66761 27950 ft 384 kts 230°
2026-04-22 19:10 52.39217 49.63393 28222 ft 386 kts 230°
2026-04-22 19:11 52.37505 49.59998 28485 ft 387 kts 230°
2026-04-22 19:11 52.35791 49.56607 28749 ft 389 kts 230°
2026-04-22 19:11 52.34065 49.53195 29005 ft 390 kts 230°
2026-04-22 19:11 52.32332 49.49778 29228 ft 392 kts 230°
2026-04-22 19:12 52.30574 49.46315 29469 ft 393 kts 230°
2026-04-22 19:12 52.28806 49.42839 29718 ft 395 kts 230°
2026-04-22 19:12 52.27041 49.39376 29933 ft 396 kts 231°
2026-04-22 19:12 52.25270 49.35905 30160 ft 398 kts 231°
2026-04-22 19:13 52.23488 49.32414 30387 ft 399 kts 230°
2026-04-22 19:13 52.21733 49.28983 30602 ft 400 kts 230°
2026-04-22 19:13 52.19944 49.25486 30794 ft 401 kts 230°
2026-04-22 19:13 52.18148 49.21979 30963 ft 403 kts 230°
2026-04-22 19:14 52.16343 49.18459 31115 ft 405 kts 230°
2026-04-22 19:14 52.14544 49.14955 31280 ft 406 kts 230°
2026-04-22 19:14 52.12730 49.11429 31435 ft 408 kts 230°
2026-04-22 19:14 52.10901 49.07880 31614 ft 409 kts 230°
2026-04-22 19:15 52.09679 49.05513 31708 ft 409 kts 230°
2026-04-22 19:15 52.07236 49.00785 31918 ft 411 kts 230°
2026-04-22 19:15 52.05380 48.97199 32066 ft 412 kts 230°
2026-04-22 19:15 52.03529 48.93626 32219 ft 414 kts 230°
2026-04-22 19:16 52.01668 48.90035 32362 ft 416 kts 230°
2026-04-22 19:16 51.99821 48.86480 32515 ft 417 kts 230°
2026-04-22 19:16 51.97940 48.82865 32672 ft 418 kts 230°
2026-04-22 19:16 51.96049 48.79240 32809 ft 420 kts 230°
2026-04-22 19:17 51.94156 48.75621 32940 ft 422 kts 230°
2026-04-22 19:17 51.92231 48.71948 33083 ft 423 kts 230°
2026-04-22 19:17 51.90335 48.68330 33238 ft 423 kts 230°
2026-04-22 19:17 51.88419 48.64679 33400 ft 424 kts 231°
2026-04-22 19:18 51.86500 48.61027 33550 ft 425 kts 231°
2026-04-22 19:18 51.82658 48.53727 33636 ft 426 kts 231°
2026-04-22 19:19 51.78807 48.46428 33645 ft 426 kts 230°
2026-04-22 19:19 51.74980 48.39203 33654 ft 427 kts 231°
2026-04-22 19:20 51.71108 48.31931 33655 ft 426 kts 230°
2026-04-22 19:20 51.67241 48.24692 33654 ft 427 kts 230°
2026-04-22 19:21 51.63342 48.17408 33659 ft 427 kts 230°
2026-04-22 19:21 51.59463 48.10178 33662 ft 427 kts 230°
2026-04-22 19:22 51.55605 48.03005 33661 ft 426 kts 230°
2026-04-22 19:22 51.51715 47.95796 33664 ft 426 kts 230°
2026-04-22 19:23 51.47847 47.88646 33665 ft 426 kts 230°
2026-04-22 19:23 51.43953 47.81469 33667 ft 426 kts 230°
2026-04-22 19:24 51.40080 47.74351 33668 ft 426 kts 230°
2026-04-22 19:24 51.36175 47.67192 33667 ft 426 kts 230°
2026-04-22 19:25 51.32292 47.60095 33664 ft 425 kts 230°
2026-04-22 19:25 51.28384 47.52972 33664 ft 425 kts 230°
2026-04-22 19:26 51.24484 47.45885 33662 ft 425 kts 230°
2026-04-22 19:26 51.20583 47.38815 33664 ft 425 kts 230°
2026-04-22 19:27 51.16668 47.31741 33666 ft 425 kts 229°
2026-04-22 19:27 51.12770 47.24714 33674 ft 425 kts 229°
2026-04-22 19:28 51.08836 47.17641 33686 ft 425 kts 229°
2026-04-22 19:28 51.04916 47.10615 33694 ft 425 kts 229°
2026-04-22 19:29 51.01021 47.03653 33703 ft 424 kts 229°
2026-04-22 19:29 50.97083 46.96633 33716 ft 424 kts 229°
2026-04-22 19:30 50.93827 46.90844 33715 ft 423 kts 229°
2026-04-22 19:30 50.89219 46.82670 33723 ft 423 kts 229°
2026-04-22 19:31 50.85298 46.75735 33723 ft 423 kts 229°
2026-04-22 19:31 50.81387 46.68836 33724 ft 423 kts 229°
2026-04-22 19:32 50.77442 46.61899 33713 ft 424 kts 229°
2026-04-22 19:32 50.73494 46.54973 33719 ft 424 kts 229°
2026-04-22 19:33 50.69559 46.48088 33718 ft 423 kts 229°
2026-04-22 19:33 50.65607 46.41192 33722 ft 423 kts 229°
2026-04-22 19:34 50.61669 46.34337 33732 ft 423 kts 229°
2026-04-22 19:34 50.57719 46.27487 33728 ft 423 kts 229°
2026-04-22 19:35 50.53803 46.20554 33731 ft 423 kts 230°
2026-04-22 19:35 50.49930 46.13632 33734 ft 422 kts 230°
2026-04-22 19:36 50.46048 46.06716 33740 ft 422 kts 230°
2026-04-22 19:36 50.42136 45.99768 33743 ft 423 kts 230°
2026-04-22 19:37 50.38264 45.92913 33749 ft 423 kts 229°
2026-04-22 19:37 50.34346 45.86000 33746 ft 423 kts 230°
2026-04-22 19:38 50.30439 45.79123 33754 ft 423 kts 230°
2026-04-22 19:38 50.26529 45.72255 33753 ft 423 kts 230°
2026-04-22 19:39 50.22611 45.65394 33755 ft 422 kts 230°
2026-04-22 19:39 50.18698 45.58560 33756 ft 422 kts 230°
2026-04-22 19:40 50.14774 45.51724 33764 ft 422 kts 230°
2026-04-22 19:40 50.10856 45.44914 33762 ft 421 kts 230°
2026-04-22 19:41 50.06902 45.38214 33763 ft 422 kts 226°
2026-04-22 19:41 50.02360 45.32404 33763 ft 425 kts 216°
2026-04-22 19:42 49.97184 45.27861 33763 ft 428 kts 207°
2026-04-22 19:42 49.91565 45.24754 33768 ft 430 kts 199°
2026-04-22 19:43 49.83233 45.21059 33774 ft 429 kts 199°
2026-04-22 19:43 49.77478 45.18523 33777 ft 428 kts 199°
2026-04-22 19:44 49.71768 45.15944 33781 ft 427 kts 201°
2026-04-22 19:44 49.66241 45.12652 33780 ft 424 kts 207°
2026-04-22 19:45 49.61027 45.08506 33794 ft 421 kts 213°
2026-04-22 19:45 49.55971 45.03895 33788 ft 422 kts 213°
2026-04-22 19:46 49.50917 44.99315 33786 ft 421 kts 213°
2026-04-22 19:46 49.45883 44.94760 33791 ft 420 kts 213°
2026-04-22 19:47 49.40848 44.90212 33793 ft 420 kts 213°
2026-04-22 19:47 49.35805 44.85664 33799 ft 419 kts 213°
2026-04-22 19:48 49.30783 44.81147 33800 ft 419 kts 214°
2026-04-22 19:48 49.25765 44.76644 33806 ft 418 kts 214°
2026-04-22 19:49 49.20751 44.72156 33801 ft 418 kts 214°
2026-04-22 19:49 49.15710 44.67652 33806 ft 418 kts 214°
2026-04-22 19:50 49.10728 44.63213 33811 ft 417 kts 214°
2026-04-22 19:50 49.05681 44.58725 33822 ft 416 kts 214°
2026-04-22 19:51 49.00697 44.54303 33809 ft 416 kts 214°
2026-04-22 19:51 48.95689 44.49869 33830 ft 416 kts 214°
2026-04-22 19:52 48.90692 44.45455 33822 ft 416 kts 214°
2026-04-22 19:52 48.85677 44.41051 33845 ft 416 kts 212°
2026-04-22 19:53 48.80363 44.37496 33849 ft 419 kts 204°
2026-04-22 19:53 48.74683 44.35239 33839 ft 425 kts 196°
2026-04-22 19:54 48.68747 44.34365 33845 ft 432 kts 186°
2026-04-22 19:54 48.62723 44.34327 33852 ft 431 kts 185°
2026-04-22 19:55 48.56740 44.34301 33857 ft 431 kts 186°
2026-04-22 19:55 48.50764 44.34300 33854 ft 430 kts 186°
2026-04-22 19:56 48.44758 44.34251 33857 ft 429 kts 186°
2026-04-22 19:56 48.38824 44.34236 33864 ft 427 kts 187°
2026-04-22 19:57 48.32857 44.34217 33876 ft 426 kts 187°
2026-04-22 19:57 48.26923 44.34178 33857 ft 426 kts 187°
2026-04-22 19:58 48.20993 44.34150 33871 ft 426 kts 187°
2026-04-22 19:58 48.15049 44.34113 33865 ft 426 kts 186°
2026-04-22 20:00 47.94428 44.33700 33880 ft 418 kts 192°
2026-04-22 20:01 47.88714 44.32432 33884 ft 412 kts 199°
2026-04-22 20:01 47.83180 44.30491 33908 ft 409 kts 201°
2026-04-22 20:02 47.77647 44.28498 33870 ft 409 kts 200°
2026-04-22 20:02 47.72092 44.26508 33904 ft 409 kts 201°
2026-04-22 20:03 47.66557 44.24532 33907 ft 408 kts 200°
2026-04-22 20:03 47.61039 44.22537 33892 ft 408 kts 200°
2026-04-22 20:04 47.55543 44.20601 33902 ft 408 kts 201°
2026-04-22 20:04 47.50017 44.18635 33916 ft 405 kts 201°
2026-04-22 20:05 47.44558 44.16686 33902 ft 404 kts 201°
2026-04-22 20:05 47.39099 44.14758 33902 ft 404 kts 201°
2026-04-22 20:06 47.33610 44.12805 33903 ft 404 kts 201°
2026-04-22 20:06 47.28147 44.10869 33917 ft 404 kts 201°
2026-04-22 20:07 47.22680 44.08944 33905 ft 404 kts 201°
2026-04-22 20:07 47.17216 44.07024 33903 ft 403 kts 201°
2026-04-22 20:08 47.11770 44.05116 33900 ft 402 kts 201°
2026-04-22 20:08 47.06325 44.03206 33898 ft 401 kts 201°
2026-04-22 20:09 47.00872 44.01299 33898 ft 400 kts 201°
2026-04-22 20:09 46.95405 43.99408 33887 ft 400 kts 201°
2026-04-22 20:10 46.90011 43.97553 33912 ft 402 kts 201°
2026-04-22 20:10 46.84628 43.95705 33925 ft 402 kts 201°
2026-04-22 20:11 46.79174 43.93831 33891 ft 401 kts 201°
2026-04-22 20:11 46.73713 43.91959 33931 ft 401 kts 201°
2026-04-22 20:12 46.68279 43.90096 33895 ft 401 kts 201°
2026-04-22 20:12 46.62874 43.88247 33915 ft 400 kts 201°
2026-04-22 20:13 46.57419 43.86383 33929 ft 400 kts 201°
2026-04-22 20:13 46.51991 43.84538 33922 ft 400 kts 201°
2026-04-22 20:14 46.46584 43.82708 33909 ft 400 kts 202°
2026-04-22 20:14 46.41110 43.80862 33935 ft 401 kts 201°
2026-04-22 20:15 46.35692 43.79040 33925 ft 400 kts 202°
2026-04-22 20:15 46.30272 43.77214 33949 ft 400 kts 202°
2026-04-22 20:16 46.24849 43.75391 33929 ft 399 kts 202°
2026-04-22 20:16 46.19407 43.73563 33943 ft 399 kts 202°
2026-04-22 20:17 46.14012 43.71755 33942 ft 399 kts 202°
2026-04-22 20:17 46.08612 43.69946 33954 ft 398 kts 202°
2026-04-22 20:18 46.03194 43.68138 33949 ft 398 kts 202°
2026-04-22 20:18 45.97783 43.66412 33940 ft 400 kts 200°
2026-04-22 20:19 45.92282 43.64875 33942 ft 401 kts 200°
2026-04-22 20:19 45.86889 43.63368 33942 ft 401 kts 200°
2026-04-22 20:20 45.81437 43.61835 33944 ft 401 kts 200°
2026-04-22 20:20 45.75927 43.60281 33939 ft 402 kts 200°
2026-04-22 20:21 45.70437 43.58735 33941 ft 402 kts 200°
2026-04-22 20:21 45.64959 43.57193 33946 ft 402 kts 200°
2026-04-22 20:22 45.59436 43.55642 33951 ft 403 kts 200°
2026-04-22 20:22 45.53894 43.54086 33948 ft 401 kts 200°
2026-04-22 20:23 45.48415 43.52554 33948 ft 402 kts 200°
2026-04-22 20:23 45.42913 43.51029 33950 ft 402 kts 200°
2026-04-22 20:24 45.37411 43.49508 33951 ft 401 kts 200°
2026-04-22 20:24 45.31885 43.47980 33954 ft 403 kts 200°
2026-04-22 20:25 45.26362 43.46453 33956 ft 403 kts 200°
2026-04-22 20:25 45.20827 43.44925 33954 ft 405 kts 200°
2026-04-22 20:26 45.15270 43.43479 33957 ft 407 kts 197°
2026-04-22 20:26 45.12463 43.43051 33826 ft 414 kts 194°
2026-04-22 20:26 45.09547 43.42874 33152 ft 424 kts 190°
2026-04-22 20:26 45.06564 43.42992 32305 ft 432 kts 186°
2026-04-22 20:27 45.03528 43.43419 31558 ft 437 kts 182°
2026-04-22 20:27 45.00534 43.44149 30891 ft 440 kts 178°
2026-04-22 20:27 44.97558 43.45102 30342 ft 434 kts 177°
2026-04-22 20:27 44.94635 43.46059 29824 ft 427 kts 177°
2026-04-22 20:28 44.91753 43.47002 29386 ft 419 kts 177°
2026-04-22 20:28 44.88919 43.47928 28945 ft 412 kts 177°
2026-04-22 20:28 44.86121 43.48837 28506 ft 405 kts 177°
2026-04-22 20:28 44.83380 43.49725 28062 ft 398 kts 177°
2026-04-22 20:29 44.80706 43.50589 27620 ft 392 kts 177°
2026-04-22 20:29 44.78035 43.51451 27176 ft 387 kts 177°
2026-04-22 20:29 44.75418 43.52294 26747 ft 381 kts 178°
2026-04-22 20:29 44.72872 43.53115 26311 ft 376 kts 178°
2026-04-22 20:30 44.70314 43.53936 25881 ft 372 kts 177°
2026-04-22 20:30 44.67814 43.54742 25446 ft 368 kts 177°
2026-04-22 20:30 44.65310 43.55545 25024 ft 363 kts 177°
2026-04-22 20:30 44.62862 43.56329 24609 ft 360 kts 177°
2026-04-22 20:31 44.60412 43.57116 24196 ft 355 kts 177°
2026-04-22 20:31 44.58015 43.57886 23790 ft 352 kts 177°
2026-04-22 20:31 44.55649 43.58643 23385 ft 349 kts 177°
2026-04-22 20:31 44.53263 43.59409 22972 ft 346 kts 177°
2026-04-22 20:32 44.50930 43.60156 22570 ft 343 kts 177°
2026-04-22 20:32 44.48606 43.60900 22155 ft 341 kts 177°
2026-04-22 20:32 44.46292 43.61640 21747 ft 339 kts 176°
2026-04-22 20:32 44.44660 43.62161 21453 ft 337 kts 177°
2026-04-22 20:33 44.42370 43.62888 21042 ft 335 kts 176°
2026-04-22 20:33 44.40364 43.63526 20690 ft 333 kts 176°
2026-04-22 20:33 44.38131 43.64237 20286 ft 331 kts 176°
2026-04-22 20:33 44.35879 43.64961 19883 ft 329 kts 176°
2026-04-22 20:34 44.33653 43.65667 19481 ft 327 kts 176°
2026-04-22 20:34 44.31418 43.66363 19076 ft 325 kts 175°
2026-04-22 20:34 44.29202 43.67069 18678 ft 322 kts 175°
2026-04-22 20:34 44.27013 43.67772 18290 ft 321 kts 175°
2026-04-22 20:35 44.24825 43.68460 17883 ft 318 kts 178°
2026-04-22 20:35 44.22875 43.68498 17470 ft 303 kts 197°
2026-04-22 20:35 44.20936 43.67488 17057 ft 291 kts 216°
2026-04-22 20:35 44.19431 43.65671 16648 ft 286 kts 232°
2026-04-22 20:36 44.18450 43.63263 16206 ft 287 kts 249°
2026-04-22 20:36 44.18100 43.60500 15747 ft 293 kts 265°
2026-04-22 20:36 44.18317 43.57686 15381 ft 293 kts 273°
2026-04-22 20:36 44.18584 43.55091 15097 ft 290 kts 273°
2026-04-22 20:37 44.18882 43.52327 14770 ft 288 kts 273°
2026-04-22 20:37 44.19182 43.49536 14428 ft 286 kts 274°
2026-04-22 20:37 44.19484 43.46806 14096 ft 285 kts 273°
2026-04-22 20:37 44.19778 43.44087 13776 ft 282 kts 274°
2026-04-22 20:38 44.20076 43.41399 13445 ft 280 kts 273°
2026-04-22 20:38 44.20369 43.38736 13175 ft 275 kts 273°
2026-04-22 20:38 44.20654 43.36155 13083 ft 266 kts 273°
2026-04-22 20:38 44.20923 43.33660 12978 ft 261 kts 272°
2026-04-22 20:39 44.21195 43.31166 12685 ft 261 kts 272°
2026-04-22 20:39 44.21465 43.28676 12373 ft 263 kts 272°
2026-04-22 20:39 44.21740 43.26123 12053 ft 263 kts 273°
2026-04-22 20:39 44.22013 43.23602 11748 ft 262 kts 273°
2026-04-22 20:40 44.22284 43.21094 11435 ft 262 kts 274°
2026-04-22 20:40 44.22552 43.18606 11125 ft 262 kts 274°
2026-04-22 20:40 44.22823 43.16088 10808 ft 260 kts 274°
2026-04-22 20:40 44.23093 43.13579 10491 ft 261 kts 275°
2026-04-22 20:41 44.23362 43.11087 10182 ft 262 kts 275°
2026-04-22 20:41 44.23631 43.08588 10047 ft 256 kts 275°
2026-04-22 20:41 44.23893 43.06185 9960 ft 244 kts 275°
2026-04-22 20:41 44.24210 43.03894 9768 ft 240 kts 287°
2026-04-22 20:42 44.24985 43.01836 9363 ft 246 kts 299°
2026-04-22 20:42 44.25942 42.99837 9000 ft 246 kts 301°
2026-04-22 20:42 44.26900 42.97839 8662 ft 245 kts 301°
2026-04-22 20:42 44.27759 42.96125 8349 ft 247 kts 310°
2026-04-22 20:43 44.28996 42.94920 7997 ft 251 kts 339°
2026-04-22 20:43 44.30732 42.94630 7688 ft 250 kts
2026-04-22 20:43 44.31536 42.94919 7560 ft 248 kts 22°
2026-04-22 20:43 44.32931 42.96291 7260 ft 245 kts 51°
2026-04-22 20:44 44.33685 42.98395 7173 ft 245 kts 78°
2026-04-22 20:44 44.33660 43.00770 7166 ft 248 kts 105°
2026-04-22 20:44 44.32841 43.02869 7168 ft 250 kts 134°
2026-04-22 20:44 44.31393 43.04185 7169 ft 250 kts 163°
2026-04-22 20:45 44.29681 43.04377 7174 ft 249 kts 193°
2026-04-22 20:45 44.28032 43.03605 7176 ft 247 kts 198°
2026-04-22 20:45 44.26666 43.03269 7161 ft 247 kts 177°
2026-04-22 20:45 44.25123 43.03829 7166 ft 247 kts 149°
2026-04-22 20:46 44.23409 43.07480 7168 ft 247 kts 93°
2026-04-22 20:46 44.23680 43.09821 7169 ft 246 kts 64°
2026-04-22 20:46 44.24707 43.11699 7168 ft 244 kts 36°
2026-04-22 20:47 44.26236 43.12679 7170 ft 242 kts
2026-04-22 20:47 44.27902 43.12547 7169 ft 240 kts 341°
2026-04-22 20:47 44.29167 43.11566 7167 ft 241 kts 317°
2026-04-22 20:47 44.30089 43.09918 7178 ft 242 kts 302°
2026-04-22 20:48 44.30965 43.07891 7170 ft 241 kts 301°
2026-04-22 20:48 44.31547 43.06550 7168 ft 241 kts 302°
2026-04-22 20:48 44.32420 43.04561 7160 ft 240 kts 302°
2026-04-22 20:48 44.33297 43.02576 7165 ft 241 kts 302°
2026-04-22 20:49 44.33650 43.01768 7172 ft 241 kts 299°
2026-04-22 20:49 44.34146 42.99574 7158 ft 242 kts 271°
2026-04-22 20:49 44.33801 42.97273 7161 ft 244 kts 243°
2026-04-22 20:49 44.33572 42.96708 7161 ft 244 kts 236°
2026-04-22 20:50 44.32453 42.95208 7163 ft 246 kts 210°
2026-04-22 20:50 44.30819 42.94516 7164 ft 247 kts 182°
2026-04-22 20:50 44.29135 42.94983 7164 ft 248 kts 153°
2026-04-22 20:50 44.27813 42.96500 7166 ft 247 kts 125°
2026-04-22 20:51 44.26898 42.98535 7176 ft 248 kts 121°
2026-04-22 20:51 44.26008 43.00621 7176 ft 249 kts 121°
2026-04-22 20:51 44.25112 43.02690 7178 ft 251 kts 121°
2026-04-22 20:51 44.24198 43.04769 7178 ft 253 kts 121°
2026-04-22 20:52 44.23311 43.06913 7188 ft 253 kts 116°
2026-04-22 20:52 44.22611 43.09150 7186 ft 254 kts 109°
2026-04-22 20:52 44.22109 43.11506 7185 ft 254 kts 102°
2026-04-22 20:52 44.21773 43.13922 7188 ft 254 kts 100°
2026-04-22 20:53 44.21365 43.16329 7187 ft 255 kts 106°
2026-04-22 20:53 44.20856 43.18662 7187 ft 254 kts 107°
2026-04-22 20:53 44.20321 43.21013 7189 ft 255 kts 108°
2026-04-22 20:53 44.19776 43.23367 7191 ft 254 kts 108°
2026-04-22 20:54 44.19225 43.25715 7160 ft 255 kts 107°
2026-04-22 20:54 44.18676 43.28058 6880 ft 253 kts 108°
2026-04-22 20:54 44.18136 43.30366 6614 ft 250 kts 108°
2026-04-22 20:54 44.17602 43.32629 6307 ft 244 kts 108°
2026-04-22 20:55 44.17081 43.34847 5981 ft 238 kts 107°
2026-04-22 20:55 44.16517 43.36977 5670 ft 232 kts 121°
2026-04-22 20:55 44.15422 43.38543 5425 ft 223 kts 150°
2026-04-22 20:55 44.13972 43.39087 5107 ft 212 kts 185°
2026-04-22 20:56 44.12653 43.38483 4977 ft 192 kts 216°
2026-04-22 20:56 44.11776 43.37150 4920 ft 188 kts 241°
2026-04-22 20:56 44.11338 43.35456 4879 ft 186 kts 265°
2026-04-22 20:56 44.11534 43.33730 4824 ft 178 kts 288°
2026-04-22 20:57 44.11949 43.32194 4736 ft 166 kts 294°
2026-04-22 20:57 44.12495 43.30778 4437 ft 163 kts 302°
2026-04-22 20:57 44.13089 43.29450 4187 ft 158 kts 302°
2026-04-22 20:57 44.13649 43.28229 3941 ft 145 kts 302°
2026-04-22 20:58 44.14196 43.27033 3764 ft 144 kts 301°
2026-04-22 20:58 44.14675 43.25975 3598 ft 143 kts 301°
2026-04-22 20:58 44.15211 43.24792 3406 ft 141 kts 301°
2026-04-22 20:58 44.15735 43.23631 3223 ft 141 kts 302°
2026-04-22 20:59 44.16253 43.22484 3033 ft 140 kts 302°
2026-04-22 20:59 44.16771 43.21333 2842 ft 139 kts 302°
2026-04-22 20:59 44.17292 43.20184 2660 ft 139 kts 302°
2026-04-22 20:59 44.17813 43.19035 2471 ft 139 kts 302°
2026-04-22 21:00 44.18328 43.17905 2294 ft 138 kts 302°
2026-04-22 21:00 44.18841 43.16781 2108 ft 138 kts 302°
2026-04-22 21:00 44.19360 43.15644 1921 ft 138 kts 301°
2026-04-22 21:00 44.19873 43.14512 1755 ft 139 kts 301°
2026-04-22 21:01 44.20384 43.13370 1585 ft 139 kts 301°
2026-04-22 21:01 44.20900 43.12221 1409 ft 138 kts 301°
2026-04-22 21:01 44.21413 43.11091 1224 ft 138 kts 301°
2026-04-22 21:01 44.21930 43.09955 1056 ft 135 kts 301°
2026-04-22 21:02 44.22369 43.08988 1048 ft 95 kts 302°
2026-04-22 21:02 44.22629 43.08413 1048 ft 45 kts 302°
2026-04-22 21:02 44.22780 43.08076 1048 ft 38 kts 302°
2026-04-22 21:02 44.22908 43.07787 1048 ft 23 kts 300°
2026-04-22 21:03 44.22971 43.07637 1048 ft 16 kts 295°
2026-04-22 21:03 44.23000 43.07536 1048 ft 3 kts 300°
2026-04-22 21:03 44.23011 43.07542 1048 ft 4 kts 73°
2026-04-22 21:03 44.23002 43.07590 1048 ft 6 kts 121°
2026-04-22 21:04 44.22970 43.07659 1048 ft 9 kts 122°
2026-04-22 21:04 44.22927 43.07753 1048 ft 12 kts 122°
2026-04-22 21:04 44.22875 43.07868 1048 ft 15 kts 122°
2026-04-22 21:04 44.22815 43.08002 1048 ft 17 kts 122°
2026-04-22 21:05 44.22747 43.08149 1048 ft 19 kts 123°
2026-04-22 21:05 44.22674 43.08313 1048 ft 20 kts 122°
2026-04-22 21:05 44.22595 43.08487 1048 ft 21 kts 122°
2026-04-22 21:05 44.22514 43.08663 1048 ft 21 kts 126°
2026-04-22 21:06 44.22408 43.08806 1048 ft 20 kts 146°
2026-04-22 21:06 44.22283 43.08901 1048 ft 20 kts 152°
2026-04-22 21:06 44.22157 43.08992 1048 ft 20 kts 153°
2026-04-22 21:06 44.22036 43.09079 1048 ft 15 kts 153°
2026-04-22 21:07 44.21971 43.09125 1047 ft 9 kts 158°
2026-04-22 21:07 44.21928 43.09123 1047 ft 6 kts 206°
2026-04-22 21:07 44.21886 43.09087 1047 ft 7 kts 211°
2026-04-22 21:07 44.21844 43.09061 1047 ft 6 kts 189°
2026-04-22 21:08 44.21797 43.09079 1047 ft 5 kts 171°
2026-04-22 21:08 44.21775 43.09074 1047 ft 3 kts 203°
2026-04-22 21:08 44.21756 43.09056 1047 ft 2 kts 215°
2026-04-22 21:08 44.21747 43.09048 1047 ft 1 kts 213°
2026-04-22 21:09 44.21740 43.09042 1047 ft 1 kts 212°
2026-04-22 21:09 44.21737 43.09039 1047 ft 0 kts 212°